THORAD AGENA D DEB

Satellite information

Favourite Embed

Satellite Type and Status

DEBRISIN ORBIT

Key statistics

Satellite THORAD AGENA D DEB at a glance.

Uptime

20120

Days in orbit

Revolutions

≈ 14.0

Per day

Orbit

SSO

Sun Synchronous Orbit

Inclination

100.0

Latest

Satellite identification and parameters

Extended collection of information and parameters for THORAD AGENA D DEB.

Object identification

Identified? True

Debris? True

Object name: THORAD AGENA D DEB

International designator: 1970-025RB

Object number (NORAD): 42497

Object ID (CCSDS): 42497

Country: UNITED STATES OF AMERICA (US)

Current information (Y/N): Y

RCS size: SMALL

Orbital parameters

Period: 103.002 minutes

Inclination: 100.0296 deg

SMA: 7278.754 km

Apoapsis: 922.378 km

Periapsis: 878.86 km

RAAN: 319.7 deg

Eccentricy: 0.0029894

Argument of periapsis: 166.5351 deg

Mean anomaly: 193.6613 deg

Mean motion: 13.9803237 rev/day

Mean motion (dot): 0.00003917 rev/day2

B* drag term: 0.0027822 1/REarth

Two-line elements (TLE)

Creation date: May 2, 2025, 2:33 a.m.

Reference frame: TEME

Reference center: EARTH

Epoch: May 1, 2025, 8:07 a.m. UTC

TLE line 0: 0 THORAD AGENA D DEB

TLE line 1: 1 42497U 70025RB 25121.33850093 .00003917 00000-0 27822-2 0 9995

TLE line 2: 2 42497 100.0296 319.7000 0029894 166.5351 193.6613 13.98032370580496

Live tracking on map

Real-time ground track for satellite THORAD AGENA D DEB.

In-orbit conjunctions

A list of the most updated potential collisions computed for object THORAD AGENA D DEB.

Target Orbit TCA Probability of collision Miss distance Type
COSMOS 2251 DEB LEO 2024-11-13 04:26:51 0.0001735138 825.0 (m) DEBRIS

Associated space launch

Meteorological research and development satellite

THORAD AGENA D DEB was lifted into orbit during the mission ‘Thorad SLV-2G Agena D | Nimbus 4’, on board a Thorad SLV-2G Agena D space rocket.

The launch took place on April 8, 1970, 8:17 a.m. from Space Launch Complex 2E.

For more information about the launch, click the button.

Launch to space Thorad SLV-2G Agena D | Nimbus 4
Thorad SLV-2G Agena D | Nimbus 4

Agency: N/A

Status: Launch Successful

Launch date: April 8, 1970, 8:17 a.m. UTC

Rocket: Thorad SLV-2G Agena D

Launch pad: Space Launch Complex 2E

Location: Vandenberg SFB, CA, USA

...

Latest news about this satellite

There are no fresh news available about this satellite. Check back as we update our databases every day.


Newsletter sign-up

Weekly statistics, charts and insights to help you stay on top of the space industry.